User: anonymous   Login
Location: North Evanston
(42.0634°N, 87.6976°W)
Time: 00:13:32
(UTC+00:00)
Language:

A-11 Canister half - Orbit

View from above orbital plane
View from above orbital plane
View from above satellite
View from above satellite

Ground track
Ground track

The orbit is defined by the following mean orbital elements,

1 00051U          26131.78428405 +.00000000 +00000-0 +13474-3 0 00002
2 00051  47.2095 161.9993 0106203  88.7592 272.5361 12.18377052    06
Epoch (UTC): 11 May 2026 18:49:22
Eccentricity: 0.0106203
inclination: 47.2095°
perigee height: 1515 km
apogee height: 1684 km
right ascension of ascending node: 161.9993°
argument of perigee: 88.7592°
revolutions per day: 12.18377052
mean anomaly at epoch: 272.5361°

The dashed part of the orbit path shows where the satellite is in the earth's shadow,  

DLR